Wind_Speed
31 32 33 34 34 33 34 34 36 35 35 34 35 37 38 39 40 40 40 40 41 42 43 44 45 46 47 47 48 49 49 50 50 51 52 53 53 54 55 55 55 56 56 56
30 31 32 33 33 33 34 34 35 35 35 34 35 36 37 38 39 40 40 41 41 42 42 44 45 46 46 46 47 48 48 49 50 51 51 52 52 53 54 55 56 56 56 56
31 31 31 33 32 33 33 33 34 35 34 34 35 36 36 37 38 39 39 40 41 42 42 43 44 45 45 46 47 47 48 49 49 50 50 51 51 52 53 54 55 56 57 57
32 32 33 31 30 31 32 33 33 34 34 34 35 35 36 37 38 38 39 39 40 40 41 42 43 43 44 45 46 47 47 48 49 49 50 50 50 51 52 53 54 55 57 57
29 30 32 31 30 29 30 32 32 33 33 34 35 35 35 36 37 37 38 38 39 39 40 40 41 42 43 44 45 46 46 46 47 48 49 49 50 50 51 51 52 53 54 55
26 28 29 29 29 29 31 31 29 31 32 33 33 34 34 35 36 37 37 38 38 38 38 39 40 41 41 42 43 44 44 45 46 47 48 48 49 49 50 50 50 51 51 51
26 28 28 28 28 29 31 30 29 30 31 32 33 34 35 35 36 37 37 37 37 37 37 38 39 40 41 42 43 43 44 45 46 47 47 48 48 49 49 49 49 49 49 49
26 27 27 26 27 28 29 29 29 30 30 31 32 32 33 34 35 37 37 38 38 37 37 37 38 38 39 41 42 42 43 44 44 45 46 47 47 47 48 48 48 48 48 48
25 26 26 26 27 27 28 29 28 29 29 31 31 31 32 33 33 34 36 37 37 37 36 36 37 38 38 39 41 41 42 42 43 43 43 43 44 44 45 46 46 46 46 47
24 24 25 25 25 26 26 26 27 27 28 29 30 30 31 32 32 32 33 34 34 34 34 35 35 36 36 36 37 39 40 40 41 41 41 41 42 42 43 44 44 44 44 45
24 23 23 22 23 23 24 24 25 26 27 27 28 28 29 30 30 31 32 32 33 33 33 33 34 35 35 35 35 36 36 37 38 38 39 39 40 41 42 42 42 42 42 42
22 22 22 22 22 23 23 23 24 24 26 27 28 28 28 28 28 29 30 31 32 32 32 33 33 34 34 33 33 34 34 34 35 35 36 37 38 38 39 39 40 40 40 40
22 22 22 22 23 23 24 24 24 24 25 25 26 27 27 27 28 28 28 29 30 30 31 31 32 32 32 32 32 33 33 33 33 34 34 35 35 35 36 36 37 38 38 38
22 22 22 23 23 23 23 23 23 23 24 24 24 25 25 26 27 27 27 28 28 29 29 29 29 29 30 30 30 31 31 31 32 33 33 33 33 33 34 34 34 35 35 36
22 22 22 22 22 22 22 23 24 24 24 24 24 24 24 25 26 26 26 27 27 27 27 27 27 28 28 28 29 29 30 30 31 31 32 31 32 32 32 33 33 33 34 35
23 23 23 23 23 23 23 23 23 23 24 24 24 24 25 25 25 25 25 25 25 26 26 26 27 27 28 28 29 30 30 30 31 30 29 29 30 31 31 31 31 31 31 33
24 23 23 23 23 23 23 24 24 24 24 24 24 25 25 25 25 24 24 25 25 25 25 25 26 26 27 28 29 29 29 29 30 29 29 29 29 29 30 29 30 29 30 31
23 22 22 22 22 22 23 23 24 24 25 25 24 25 25 25 24 24 24 24 24 24 25 25 26 26 27 27 28 28 28 29 28 28 28 28 28 28 28 28 28 28 28 28
22 21 21 21 21 21 22 22 22 22 23 24 24 24 24 24 24 24 24 24 24 24 25 26 26 27 27 27 27 27 27 28 27 27 27 26 26 26 26 26 26 26 27 27
20 19 20 20 20 20 20 21 21 21 22 22 22 23 23 23 23 23 23 23 23 24 25 26 26 27 26 26 26 26 26 26 26 25 25 25 25 24 24 24 24 24 25 25
19 19 19 19 19 20 20 20 21 21 21 21 22 22 22 22 22 22 22 23 23 24 25 25 25 25 25 25 25 25 25 25 25 25 25 24 24 24 23 23 23 23 23 23
18 17 18 18 18 19 19 20 21 21 22 22 21 22 22 22 22 23 23 23 24 24 25 25 25 25 24 24 24 24 24 24 25 25 25 24 23 23 22 22 22 22 22 22
17 17 18 18 19 19 20 21 22 22 22 23 22 22 22 23 23 23 23 24 25 25 25 25 25 24 24 24 24 24 24 24 24 24 24 23 23 22 22 22 22 21 21 20
18 18 18 19 20 21 22 22 23 23 23 23 23 23 24 23 24 24 25 25 25 25 25 25 25 25 25 25 25 25 25 24 24 24 23 22 22 21 21 21 20 20 20 19
18 18 19 20 21 22 23 23 24 24 24 24 24 24 24 24 25 25 26 26 26 25 25 26 25 25 25 25 25 25 25 24 24 23 22 22 21 21 20 20 20 19 20 20
19 19 20 21 22 23 23 24 24 24 25 25 25 25 25 25 25 26 26 26 26 25 25 25 25 25 25 25 25 25 24 24 23 22 22 22 22 21 20 19 19 19 19 19
20 21 21 22 23 24 24 24 25 25 25 25 25 26 26 26 26 26 26 26 25 25 24 25 25 25 25 25 25 25 24 24 23 23 22 22 22 21 20 20 19 19 19 19
Wind_Direction
268 268 267 265 265 266 266 267 267 268 266 266 265 265 265 264 264 264 263 263 262 263 263 263 263 262 263 263 264 264 264 264 265 265 265 266 265 264 263 263 263 263 263 262
267 267 267 267 265 265 266 267 268 268 267 265 264 264 265 265 265 265 264 264 264 264 264 264 264 263 264 264 264 265 265 266 266 266 267 266 266 265 265 265 264 264 264 263
268 265 265 265 267 267 268 269 270 269 269 266 264 264 264 264 265 266 266 266 265 264 265 265 264 264 264 265 266 266 267 267 267 268 268 268 267 266 266 266 266 265 264 263
270 267 267 270 269 268 268 268 269 269 269 268 265 264 264 265 265 266 266 266 266 266 266 266 266 265 265 266 266 267 268 268 268 269 269 269 268 267 267 267 267 267 265 264
274 272 271 271 272 272 271 269 268 269 268 267 266 265 265 266 268 269 269 268 268 268 268 268 267 267 267 267 268 268 268 268 269 270 270 269 269 268 267 268 268 267 266 265
274 273 274 275 275 275 274 273 272 270 268 267 266 266 266 268 269 270 271 270 270 270 270 269 268 269 269 269 269 269 269 270 270 271 270 270 269 268 268 268 268 267 266 265
272 274 276 277 278 276 275 276 273 272 270 269 267 268 268 269 270 272 272 272 273 273 273 272 271 271 270 271 271 271 271 272 272 272 271 271 270 269 269 269 268 267 266 265
273 274 278 279 277 277 277 277 276 275 273 272 270 271 271 272 273 273 272 273 274 275 275 274 273 273 273 273 273 273 273 273 274 273 272 272 270 270 269 269 268 267 266 265
276 276 278 279 278 279 279 278 276 276 276 274 273 273 273 274 275 274 274 274 275 276 276 275 275 275 276 276 275 275 276 276 276 275 274 272 270 270 269 268 268 267 266 265
279 279 278 279 278 279 279 278 276 276 276 276 275 275 276 276 276 276 276 276 276 276 276 275 275 276 278 278 277 278 278 278 277 276 274 272 271 270 270 270 268 267 266 265
279 280 280 281 280 280 280 278 277 278 277 278 279 280 281 280 277 276 277 277 276 277 277 277 277 278 279 280 280 280 280 279 279 277 275 274 273 272 271 269 268 266 266 265
283 283 284 285 283 282 282 281 282 281 280 281 282 282 281 281 280 278 278 278 278 278 278 278 278 279 280 281 282 282 281 281 281 279 277 276 275 273 271 271 269 267 267 265
284 284 285 286 284 282 283 284 285 286 285 285 284 283 282 281 281 281 280 279 280 280 280 280 279 279 280 281 283 283 283 282 282 281 279 279 276 274 273 272 271 269 267 266
283 284 286 287 286 285 285 286 289 290 289 289 289 288 287 284 282 282 281 281 282 282 281 281 280 279 280 281 283 284 284 283 284 283 281 280 279 277 275 273 272 271 268 266
285 286 287 288 287 286 286 288 290 291 290 291 292 291 290 288 286 284 284 284 283 283 282 281 281 281 281 282 283 285 286 286 286 285 283 282 281 279 277 275 274 272 270 268
288 289 288 287 285 285 288 289 289 289 290 291 291 291 291 291 290 288 288 288 286 285 284 283 283 283 283 284 285 286 288 288 288 288 286 284 283 281 279 276 275 274 272 271
289 288 288 286 285 285 287 288 287 288 289 291 291 291 292 292 292 291 290 290 289 287 287 287 286 286 286 286 286 286 288 289 289 289 289 287 286 284 281 279 276 275 274 274
290 288 287 286 286 288 289 288 288 288 289 290 291 291 292 291 291 291 290 291 290 290 289 288 288 288 288 288 287 288 289 289 289 290 290 289 287 285 282 281 278 277 276 275
291 291 290 290 290 291 292 292 292 291 291 291 292 292 292 291 290 290 290 290 290 291 291 290 289 289 289 288 288 289 290 290 290 290 290 289 289 287 285 282 280 278 276 275
291 290 291 292 291 291 292 292 294 295 295 295 294 294 294 293 292 291 291 290 291 291 291 290 291 291 291 289 289 289 290 291 292 290 289 288 288 288 288 285 282 279 277 276
292 291 292 293 292 293 293 294 295 297 297 296 296 295 294 294 294 294 294 294 294 294 293 292 291 292 292 291 290 290 290 291 292 291 290 289 288 287 287 286 283 281 279 278
293 293 293 294 294 295 296 297 298 298 298 297 297 296 295 295 295 295 295 295 296 296 295 293 293 292 292 291 291 290 290 291 291 291 290 289 287 287 286 284 283 282 280 278
295 294 294 294 295 296 297 298 299 299 299 299 298 297 296 296 296 296 296 296 296 296 296 294 293 292 292 292 291 291 290 291 291 291 290 289 286 285 284 284 282 281 279 278
296 296 296 296 296 297 298 299 300 299 299 299 299 298 297 296 296 296 296 296 296 296 295 295 293 293 292 292 291 291 291 291 290 289 288 286 284 284 283 283 282 280 278 276
298 297 298 299 300 300 301 300 300 300 299 299 299 299 298 297 296 297 297 296 296 295 295 295 294 293 293 293 292 292 292 291 290 287 286 285 284 284 283 282 280 279 276 273
301 300 299 300 301 302 302 301 301 300 299 298 298 297 297 298 297 297 297 296 295 295 294 294 294 293 293 293 293 291 291 291 289 287 285 284 283 283 282 280 278 277 274 271
303 302 301 300 301 302 302 302 302 301 300 298 297 297 297 297 297 297 297 297 296 294 294 295 294 293 293 293 292 291 289 289 288 287 285 283 281 280 280 279 278 277 274 272
Height
5538 5538 5538 5539 5540 5539 5539 5539 5539 5541 5542 5543 5542 5542 5541 5541 5541 5541 5542 5542 5543 5543 5543 5543 5543 5544 5544 5544 5544 5544 5544 5545 5544 5544 5544 5544 5544 5544 5544 5544 5545 5545 5545 5546
5529 5529 5528 5528 5529 5529 5529 5529 5529 5529 5531 5532 5531 5530 5530 5529 5529 5530 5530 5530 5530 5530 5530 5530 5530 5530 5530 5530 5530 5530 5530 5530 5530 5529 5529 5529 5529 5528 5528 5529 5529 5529 5530 5530
5518 5519 5517 5518 5521 5520 5520 5520 5520 5519 5521 5520 5520 5519 5519 5518 5518 5518 5518 5518 5518 5518 5518 5517 5517 5517 5517 5517 5516 5516 5516 5516 5515 5515 5514 5514 5514 5513 5513 5513 5513 5513 5514 5514
5508 5509 5508 5512 5511 5510 5510 5510 5509 5508 5509 5509 5508 5508 5508 5507 5507 5507 5506 5506 5506 5506 5505 5505 5504 5504 5504 5503 5503 5502 5502 5501 5501 5500 5500 5499 5498 5498 5498 5497 5497 5497 5497 5498
5499 5498 5498 5501 5501 5500 5499 5499 5499 5498 5498 5498 5497 5497 5498 5496 5496 5495 5495 5495 5494 5494 5493 5492 5492 5491 5491 5490 5489 5488 5488 5487 5486 5485 5485 5484 5484 5483 5482 5482 5481 5481 5481 5481
5491 5489 5489 5493 5492 5489 5489 5488 5489 5487 5487 5487 5486 5487 5488 5486 5485 5484 5484 5483 5483 5482 5481 5480 5479 5479 5478 5477 5476 5475 5474 5473 5472 5471 5470 5469 5468 5468 5467 5466 5466 5465 5465 5465
5482 5481 5481 5483 5481 5480 5480 5481 5479 5477 5476 5476 5475 5476 5476 5475 5474 5473 5472 5472 5471 5470 5469 5468 5467 5466 5465 5464 5463 5462 5460 5459 5458 5456 5455 5454 5453 5453 5452 5451 5451 5451 5451 5451
5474 5473 5476 5474 5472 5471 5471 5470 5468 5467 5467 5466 5465 5464 5464 5464 5463 5462 5461 5460 5459 5458 5457 5456 5455 5454 5453 5451 5450 5448 5447 5445 5444 5442 5441 5439 5438 5437 5436 5436 5436 5435 5435 5435
5467 5468 5466 5464 5463 5462 5461 5460 5458 5458 5457 5456 5455 5455 5454 5453 5452 5451 5450 5449 5448 5447 5446 5445 5443 5442 5440 5439 5437 5435 5434 5432 5430 5429 5427 5425 5424 5423 5422 5421 5420 5420 5420 5421
5459 5458 5457 5456 5454 5453 5452 5450 5449 5448 5448 5447 5446 5445 5444 5443 5442 5441 5439 5438 5437 5436 5435 5433 5432 5430 5428 5427 5425 5423 5421 5419 5417 5415 5414 5412 5411 5409 5408 5407 5406 5406 5406 5406
5451 5450 5449 5448 5447 5445 5444 5442 5441 5440 5439 5438 5437 5436 5434 5433 5432 5430 5429 5428 5426 5425 5424 5422 5421 5419 5417 5415 5413 5411 5409 5407 5405 5403 5401 5399 5398 5396 5395 5394 5392 5392 5392 5392
5444 5444 5442 5441 5439 5438 5436 5434 5433 5431 5430 5429 5428 5426 5425 5423 5422 5420 5419 5418 5416 5414 5413 5412 5410 5408 5406 5404 5402 5400 5398 5396 5393 5391 5389 5387 5385 5384 5382 5381 5380 5379 5379 5379
5437 5436 5434 5433 5431 5429 5428 5426 5425 5423 5422 5420 5419 5417 5416 5414 5413 5411 5409 5408 5406 5405 5403 5401 5400 5398 5396 5394 5392 5390 5387 5385 5383 5380 5378 5376 5374 5372 5371 5370 5368 5367 5367 5366
5430 5428 5427 5425 5423 5422 5420 5419 5417 5416 5414 5412 5410 5408 5407 5405 5404 5402 5400 5399 5397 5395 5393 5392 5390 5388 5386 5384 5382 5380 5377 5375 5373 5370 5368 5365 5363 5361 5360 5358 5357 5356 5355 5354
5423 5422 5420 5418 5416 5414 5413 5411 5410 5408 5406 5404 5403 5401 5399 5397 5395 5393 5392 5390 5388 5386 5384 5383 5381 5379 5377 5375 5373 5370 5368 5365 5363 5360 5358 5355 5353 5351 5350 5348 5347 5346 5345 5344
5416 5415 5413 5411 5409 5407 5406 5404 5402 5400 5399 5397 5395 5393 5391 5389 5387 5385 5383 5381 5380 5378 5376 5374 5372 5370 5368 5366 5364 5362 5359 5356 5354 5351 5349 5346 5344 5342 5340 5339 5337 5336 5335 5334
5409 5407 5405 5403 5402 5400 5398 5396 5394 5393 5391 5390 5388 5386 5383 5381 5379 5377 5375 5373 5371 5369 5368 5366 5364 5362 5360 5358 5355 5353 5350 5348 5345 5342 5340 5337 5335 5333 5331 5329 5328 5327 5325 5324
5401 5399 5397 5396 5394 5392 5390 5388 5387 5385 5383 5381 5380 5378 5376 5374 5372 5370 5368 5366 5364 5362 5360 5358 5356 5354 5351 5349 5347 5344 5342 5339 5337 5334 5331 5329 5327 5325 5323 5321 5319 5318 5316 5315
5393 5391 5390 5388 5386 5385 5383 5381 5379 5377 5375 5373 5372 5370 5368 5366 5364 5362 5360 5358 5356 5354 5352 5350 5348 5346 5343 5341 5339 5336 5334 5331 5329 5326 5323 5321 5319 5316 5314 5313 5311 5309 5308 5306
5387 5385 5383 5381 5380 5378 5376 5374 5372 5370 5368 5366 5364 5362 5360 5358 5356 5355 5353 5351 5349 5347 5344 5342 5340 5337 5335 5333 5330 5328 5326 5324 5321 5318 5316 5314 5312 5309 5307 5305 5303 5302 5300 5299
5380 5379 5377 5375 5373 5372 5370 5368 5366 5364 5362 5360 5358 5356 5353 5351 5349 5347 5345 5343 5341 5339 5336 5334 5332 5329 5327 5325 5323 5320 5318 5316 5313 5311 5309 5306 5304 5302 5300 5298 5296 5294 5293 5292
5374 5373 5371 5369 5368 5366 5364 5362 5360 5357 5355 5353 5351 5349 5347 5345 5342 5340 5338 5336 5334 5331 5329 5326 5324 5322 5319 5317 5315 5313 5311 5308 5306 5304 5301 5299 5297 5295 5293 5291 5289 5287 5286 5285
5369 5367 5366 5364 5362 5360 5358 5356 5354 5351 5349 5347 5345 5342 5340 5338 5335 5333 5331 5328 5326 5323 5321 5318 5316 5314 5312 5310 5307 5305 5303 5301 5298 5296 5293 5291 5289 5287 5286 5284 5282 5280 5279 5278
5363 5362 5360 5358 5356 5354 5352 5349 5347 5345 5342 5340 5338 5335 5333 5330 5328 5325 5323 5321 5318 5315 5313 5310 5308 5306 5304 5301 5299 5297 5295 5292 5290 5287 5285 5283 5281 5280 5278 5276 5275 5273 5272 5272
5358 5356 5354 5352 5350 5347 5345 5342 5340 5338 5335 5333 5330 5327 5325 5323 5320 5317 5315 5312 5310 5307 5305 5302 5300 5298 5295 5293 5291 5288 5286 5284 5281 5279 5277 5275 5274 5272 5271 5269 5268 5267 5266 5265
5352 5350 5347 5345 5343 5340 5338 5335 5333 5330 5328 5325 5322 5320 5317 5314 5312 5309 5306 5304 5301 5299 5296 5294 5292 5289 5287 5284 5282 5280 5278 5275 5273 5271 5269 5268 5266 5264 5263 5262 5261 5259 5259 5258
5345 5343 5341 5338 5336 5333 5330 5328 5325 5322 5320 5317 5314 5312 5309 5306 5303 5300 5298 5295 5292 5290 5288 5285 5283 5281 5278 5276 5273 5271 5269 5267 5265 5263 5261 5260 5258 5257 5255 5254 5253 5252 5252 5251